This is the latest recevied weather packets stored in our database for station/object WW6Q. If no packets are shown the sender has not sent any weather packets the latest 10 day(s).
| Time | Temp. | Humidity | Pressure | Rain* | Wind** | Luminosity | Snow |
|---|---|---|---|---|---|---|---|
| 1788126052 | 25.56° C | 74% | 1017.1 hPa | 0 mm | - | 137 W/m² | - |
| 1788125752 | 26.11° C | 72% | 1017 hPa | 0 mm | - | 149 W/m² | - |
| 1788125447 | 26.11° C | 72% | 1017.2 hPa | 0 mm | - | 158 W/m² | - |
| 1788125143 | 26.11° C | 73% | 1017.2 hPa | 0 mm | - | 177 W/m² | - |
| 1788124849 | 26.11° C | 72% | 1017.3 hPa | 0 mm | - | 194 W/m² | - |
| 1788124538 | 25.56° C | 72% | 1017.3 hPa | 0 mm | - | 182 W/m² | - |
| 1788124238 | 25.56° C | 72% | 1017.3 hPa | 0 mm | - | 172 W/m² | - |
| 1788123933 | 25.56° C | 72% | 1017.3 hPa | 0 mm | - | 118 W/m² | - |
| 1788123632 | 25.56° C | 71% | 1017 hPa | 0 mm | - | 102 W/m² | - |
| 1788123330 | 26.11° C | 71% | 1016.8 hPa | 0 mm | - | 98 W/m² | - |
| 1788123026 | 26.11° C | 71% | 1016.6 hPa | 0 mm | - | 129 W/m² | - |
| 1788122725 | 26.11° C | 68% | 1016.6 hPa | 0 mm | - | 207 W/m² | - |
| 1788122424 | 26.11° C | 67% | 1016.5 hPa | 0 mm | - | 263 W/m² | - |
| 1788122121 | 26.11° C | 68% | 1016.2 hPa | 0 mm | - | 240 W/m² | - |
| 1788121816 | 26.11° C | 69% | 1016.7 hPa | 0 mm | - | 211 W/m² | - |
| 1788121510 | 26.11° C | 69% | 1016.8 hPa | 0 mm | - | 232 W/m² | - |
| 1788121206 | 26.11° C | 69% | 1016.7 hPa | 0 mm | - | 224 W/m² | - |
| 1788120913 | 26.11° C | 70% | 1016.5 hPa | 0 mm | - | 257 W/m² | - |
| 1788120600 | 26.67° C | 71% | 1016.5 hPa | 0 mm | - | 385 W/m² | - |
| 1788120301 | 26.67° C | 68% | 1016.5 hPa | 0 mm | - | 508 W/m² | - |
| 1788120000 | 26.67° C | 73% | 1016.6 hPa | 0 mm | - | 719 W/m² | - |
| 1788119695 | 26.11° C | 76% | 1016.6 hPa | 0 mm | - | 837 W/m² | - |
| 1788119393 | 26.11° C | 76% | 1016.8 hPa | 0 mm | - | 863 W/m² | - |
| 1788119093 | 25.56° C | 73% | 1016.7 hPa | 0 mm | - | 880 W/m² | - |
| 1788118788 | 25.56° C | 75% | 1016.8 hPa | 0 mm | - | 688 W/m² | - |
* Rain latest hour (hover to see other rain measurements)
** Current wind speed in m/s (hover to see current wind gust speed)